Estación municipal de St. Hilari Sacalm (La Selva, Guilleries)

Consulta los datos en tiempo real de la estación municipal de St. Hilari Sacalm





Hora UTC 04:30
Temperatura 7.5 ºC
Humedad 91.7 %
Presión 1011.7 hPa
Pluja 0.0 mm
Velocidad viento 0.3 km/h
Dirección viento SSW
Radiación solar 0.7 W/m²

Webcam

Datos diarios 2026-05-05



Hora UTC (invierno +1h; verano +2h)
Temperatura (ºC) Humedad (%) Presión (hPa) Velocidad viento (km/h) Precipitación (mm) Radiación solar (W/m²)
Hora UTC Aire Humedad Presión Vel. Dir. Vel. Max Dir. Intent. máx 5 min. Rad. Sol.
00:05 9.4 90.1 1012.1 1.9 W 1.9 W 0.0 0.1
00:10 9.2 90.2 1012.1 1.0 NW 8.8 WNW 0.0 0.1
00:15 9.2 90.9 1012.1 4.4 NW 16.9 WNW 0.0 0.1
00:20 9.2 91.3 1012.1 1.7 WSW 11.5 NW 0.0 0.1
00:25 9.2 91.6 1012.1 5.6 W 19.6 WNW 0.0 0.1
00:30 9.1 92.0 1012.1 2.1 W 11.5 W 0.0 0.1
00:35 9.1 92.2 1012.1 2.5 WSW 16.9 WNW 0.0 0.1
00:40 9.0 92.3 1012.1 2.5 WSW 11.5 SW 0.0 0.1
00:45 9.0 92.7 1012.0 1.2 W 11.5 W 0.0 0.1
00:50 8.9 92.9 1012.0 0.9 WSW 14.2 SW 0.0 0.1
00:55 8.9 92.9 1012.0 0.1 W 6.1 W 0.0 0.1
01:00 8.8 92.9 1012.0 0.9 NNW 8.8 NNW 0.0 0.1
01:05 8.5 92.8 1011.9 1.1 NNW 11.5 WNW 0.0 0.1
01:10 8.5 93.5 1011.8 0.3 NW 8.8 NW 0.0 0.1
01:15 8.5 93.5 1011.8 0.0 NNE 0.0 NE 0.0 0.1
01:20 8.4 93.5 1011.9 0.0 NNE 0.0 W 0.0 0.1
01:25 8.2 93.4 1011.9 0.0 NNE 0.0 W 0.0 0.1
01:30 8.2 93.8 1012.0 0.0 NNE 0.0 SW 0.0 0.1
01:35 8.1 93.8 1012.0 0.0 NNE 0.0 SW 0.0 0.1
01:40 8.2 94.1 1012.0 0.0 NNE 0.0 NW 0.0 0.1
01:45 8.2 93.8 1011.9 0.0 NNE 0.0 WNW 0.0 0.1
01:50 8.1 93.7 1011.9 0.0 NNE 0.0 W 0.0 0.1
01:55 8.1 93.5 1011.8 0.0 NNE 0.0 W 0.0 0.1
02:00 8.0 93.5 1011.8 0.0 NNE 0.0 NW 0.0 0.1
02:05 8.0 93.4 1011.8 0.4 WSW 8.8 WSW 0.0 0.1
02:10 8.1 93.4 1011.8 3.6 WNW 14.2 SW 0.0 0.1
02:15 8.3 93.1 1011.8 4.9 WNW 16.9 NW 0.0 0.1
02:20 8.4 92.3 1011.8 3.8 WNW 16.9 NW 0.0 0.1
02:25 8.5 91.6 1011.8 5.5 WNW 14.2 NNW 0.0 0.1
02:30 8.6 90.8 1011.9 6.6 WNW 19.6 NNW 0.0 0.1
02:35 8.7 90.5 1011.9 7.5 WNW 19.6 WNW 0.0 0.1
02:40 8.6 90.5 1011.9 4.4 WNW 14.2 NW 0.0 0.1
02:45 8.5 90.7 1011.8 3.5 WNW 14.2 WNW 0.0 0.1
02:50 8.5 91.1 1011.8 3.7 W 16.9 W 0.0 0.1
02:55 8.5 91.3 1011.8 3.8 W 14.2 WNW 0.0 0.1
03:00 8.4 91.4 1011.8 2.5 W 11.5 WNW 0.0 0.1
03:05 8.3 91.6 1011.8 0.0 NNE 0.0 WSW 0.0 0.1
03:10 8.2 91.7 1011.8 1.1 WNW 11.5 NW 0.0 0.1
03:15 8.2 91.8 1011.7 4.3 W 14.2 SW 0.0 0.1
03:20 8.2 91.9 1011.7 5.2 W 14.2 NW 0.0 0.1
03:25 8.3 91.7 1011.7 0.9 SW 14.2 W 0.0 0.1
03:30 8.3 91.5 1011.7 0.1 WSW 3.4 SW 0.0 0.1
03:35 8.2 91.1 1011.8 0.1 NW 6.1 NW 0.0 0.1
03:40 8.0 91.1 1011.7 0.6 NW 6.1 WNW 0.0 0.1
03:45 8.1 91.2 1011.7 0.4 W 11.5 WSW 0.0 0.1
03:50 8.2 90.1 1011.6 0.1 WNW 6.1 NW 0.0 0.1
03:55 8.1 89.4 1011.6 0.0 NNE 0.0 WNW 0.0 0.1
04:00 8.0 89.1 1011.6 0.1 SW 6.1 SSW 0.0 0.1
04:05 7.9 89.2 1011.6 0.0 NNE 0.0 W 0.0 0.1
04:10 7.8 89.7 1011.6 0.1 SW 3.4 SSW 0.0 0.1
04:15 7.7 90.4 1011.6 2.2 SW 8.8 SSW 0.0 0.1
04:20 7.5 90.9 1011.6 0.7 SW 8.8 SW 0.0 0.1
04:25 7.5 91.4 1011.6 0.5 S 6.1 SSW 0.0 0.3
04:30 7.5 91.7 1011.7 0.3 SSW 6.1 SSW 0.0 0.7
Máxima 9.4 94.1 1012.1 7.5 WNW 19.6 WNW 0.0 0.7
Mínima 7.5 89.1 1011.6
Total 0.0